Wind_Speed
3 4 4 5 6 7 8 8 9 10 10 11 11 12 12 12 12 12 12 12 12 12 13 13 13 14 14 14 14 14 14 14 14 14 14 15 16 16 16 16 15 15 15 16 17 18 19 20 21 21 21 20 18 17 16 16 15 14 14 14 14 13 13 14 15 16 17 18 18
2 2 3 4 4 5 6 6 7 7 7 8 8 9 9 9 9 9 10 10 11 11 12 12 12 12 12 12 12 12 11 11 11 11 12 13 14 14 14 14 14 14 15 17 18 19 20 20 20 20 18 17 15 14 13 13 12 12 13 13 14 13 13 14 16 17 17 17 16
2 2 3 3 3 4 4 5 5 5 6 6 7 7 7 8 8 8 9 9 10 10 10 10 10 10 10 10 10 10 9 9 9 10 11 12 12 12 13 13 14 15 16 18 19 19 19 19 19 17 16 14 14 13 13 13 13 13 14 14 14 14 14 15 16 17 16 15 15
2 2 2 2 3 3 3 4 4 5 5 6 6 6 7 7 7 8 8 8 8 8 9 9 9 8 8 8 8 8 8 8 9 9 10 11 11 12 12 13 14 16 17 18 18 18 18 18 17 16 15 14 14 14 15 16 16 16 16 15 14 14 14 15 16 16 16 15 15
3 3 3 3 3 3 3 3 4 5 5 5 6 6 6 7 7 7 7 7 7 7 7 7 7 7 7 6 6 6 7 7 8 8 9 10 10 11 12 13 14 15 16 17 17 17 17 16 15 15 15 15 15 15 15 16 16 16 15 15 14 14 14 15 15 15 15 14 15
4 4 4 4 4 4 4 4 4 5 5 5 5 6 6 6 6 6 6 6 6 6 6 6 6 5 5 5 5 5 5 6 6 7 8 8 9 10 11 12 13 14 15 15 15 15 14 14 13 14 14 14 14 14 14 14 14 13 13 14 14 14 14 14 14 14 13 13 13
5 5 5 5 5 4 4 4 5 5 5 5 6 6 6 6 6 6 6 5 5 5 5 4 4 4 4 4 4 3 3 3 4 4 5 6 6 7 8 9 10 11 11 11 11 11 11 11 11 12 12 12 12 12 11 11 11 11 11 12 12 12 12 12 12 12 11 11 11
5 5 5 5 5 5 5 5 5 5 5 5 6 6 6 6 6 6 6 5 5 5 5 4 4 4 4 4 4 4 4 4 4 4 4 4 5 5 5 5 6 6 5 5 5 6 7 8 8 9 10 10 10 10 9 9 9 9 10 10 10 10 10 10 10 10 10 10 10
5 5 5 5 5 5 5 5 5 5 5 5 5 5 5 5 5 5 6 6 6 7 7 7 7 7 7 7 7 7 7 7 8 8 8 7 8 8 8 7 6 6 5 4 4 3 4 5 6 7 8 8 9 9 8 8 8 9 10 10 10 10 10 10 9 9 8 8 8
5 5 5 5 5 5 5 4 4 4 4 5 5 5 5 6 7 7 8 9 9 9 10 10 10 10 10 10 9 9 9 9 9 10 10 10 9 9 9 8 7 6 5 5 4 4 4 5 6 6 7 6 7 8 9 9 9 10 10 9 9 9 9 9 8 7 6 7 7
5 5 5 5 5 4 4 4 4 4 5 5 6 7 8 9 9 9 9 9 10 11 11 11 11 11 10 10 10 9 9 9 9 9 9 9 8 7 6 5 4 4 4 3 3 3 4 5 6 6 6 6 7 9 9 10 10 10 10 9 9 8 7 6 6 5 5 6 7
5 5 5 5 5 4 4 5 5 6 6 7 8 9 10 10 10 10 9 9 10 11 11 11 10 9 8 8 7 7 7 6 6 6 6 6 5 4 3 3 2 2 2 3 3 4 5 6 6 7 7 7 9 9 10 10 9 9 9 8 7 6 5 5 5 5 6 6 7
5 5 5 5 5 5 5 5 6 7 8 9 9 10 10 11 10 10 10 10 10 10 10 9 8 7 6 6 5 5 5 4 4 4 4 5 5 5 6 6 7 6 5 5 6 6 7 7 8 8 8 9 9 10 10 9 9 8 8 7 6 6 5 5 6 6 7 7 7
5 5 6 6 6 6 6 6 7 8 9 10 10 10 11 11 10 10 9 9 9 8 8 7 7 6 5 4 4 4 4 4 5 5 6 6 7 8 9 9 9 9 8 7 8 8 8 8 8 8 9 9 9 10 10 9 8 8 8 7 7 6 6 6 7 8 8 8 8
6 6 6 6 6 6 6 7 8 8 9 9 9 9 10 11 10 9 8 7 6 5 5 4 4 4 4 4 3 3 3 4 4 5 6 6 8 8 9 9 8 8 8 8 8 8 8 8 8 8 9 8 8 8 9 8 8 8 8 8 7 7 8 8 9 9 9 8 8
6 6 6 6 6 6 7 7 8 8 8 8 8 8 8 8 8 7 6 5 3 3 2 2 2 3 3 3 3 2 2 3 3 4 4 5 5 6 6 6 6 6 7 8 8 8 8 8 8 8 8 8 8 8 8 8 8 8 8 8 8 9 10 10 10 10 9 8 8
7 7 7 6 6 6 7 7 8 8 7 6 6 6 5 5 4 4 3 2 2 1 1 2 2 2 2 2 2 2 2 2 3 3 2 2 2 3 3 4 5 5 6 6 7 7 7 7 7 7 7 7 8 8 8 8 8 9 10 11 11 11 12 12 11 10 10 9 9
8 7 7 6 6 6 6 7 7 7 6 5 4 3 2 2 2 2 2 2 2 1 1 2 2 2 2 2 2 2 2 2 2 1 0 1 2 3 3 4 5 5 6 6 7 7 7 7 7 8 8 8 8 8 9 10 11 12 13 13 13 13 13 12 11 10 10 9 9
8 8 7 6 5 5 5 5 6 5 4 3 2 1 1 2 2 2 2 2 2 2 2 3 3 2 2 2 2 2 2 2 2 1 2 3 3 4 4 5 5 5 6 6 7 8 8 8 8 8 8 9 9 10 11 13 14 15 15 15 14 14 13 13 12 11 11 11 11
8 7 6 4 3 3 3 4 4 3 2 1 1 1 3 4 4 4 4 4 3 3 4 4 4 3 3 2 2 2 3 4 4 4 4 4 5 6 6 6 6 6 6 7 8 8 8 8 8 9 9 10 12 13 15 16 16 16 16 15 15 15 14 14 13 13 13 13 14
6 5 3 2 1 1 1 2 2 1 1 1 1 3 5 6 6 6 6 5 5 5 6 5 4 3 3 3 3 4 5 6 6 6 6 6 6 6 6 6 6 7 7 8 8 8 8 8 9 10 11 13 15 16 17 17 17 16 16 16 16 15 15 15 15 15 16 16 16
4 3 1 1 1 2 2 2 1 1 1 1 3 4 6 8 8 8 7 7 6 6 6 5 4 3 3 3 4 6 7 8 8 8 7 7 7 7 7 7 7 8 8 8 8 8 9 9 10 12 14 16 17 18 18 17 17 17 16 16 16 16 16 16 16 17 17 17 18
3 2 2 2 3 3 3 2 2 2 2 2 4 7 8 9 9 9 8 8 7 7 6 6 5 4 4 5 6 8 9 9 9 9 8 8 8 8 7 7 8 9 9 9 9 9 10 11 12 14 16 18 18 18 18 17 17 17 17 17 17 17 17 17 18 18 18 18 18
3 2 2 3 3 4 4 5 5 4 3 4 6 9 10 11 10 10 9 8 7 7 7 6 6 6 7 8 9 9 10 11 10 10 9 9 9 9 9 9 9 9 9 9 9 9 11 12 14 16 17 18 18 18 18 17 17 17 17 17 17 17 17 17 17 17 18 18 17
4 3 3 4 6 7 8 8 7 6 5 5 8 10 12 12 11 10 9 8 8 8 7 8 8 9 9 10 11 11 11 11 11 11 11 10 10 10 10 10 10 10 9 9 9 10 11 13 15 17 18 18 18 18 18 18 18 18 18 17 17 17 17 17 16 16 16 16 16
4 4 5 6 9 10 11 9 8 6 6 7 9 12 13 13 12 10 8 8 8 9 9 10 11 11 12 12 12 12 12 11 11 11 11 12 11 12 12 12 12 11 11 10 10 11 12 13 15 16 17 18 18 18 18 18 18 18 17 17 17 17 17 16 16 15 15 14 14
5 5 7 9 11 12 11 9 8 7 8 9 11 13 14 13 12 10 9 9 10 10 11 12 13 14 14 13 13 12 12 12 12 12 13 13 13 13 13 13 13 13 12 11 11 12 13 13 14 15 16 18 18 19 18 18 18 17 17 16 15 15 15 15 14 13 13 12 12
7 8 9 11 12 12 11 9 9 9 10 11 12 13 14 13 12 11 11 11 12 13 14 15 15 15 15 14 14 13 13 13 13 13 13 13 13 13 13 13 13 13 12 12 12 13 14 14 15 15 16 17 18 18 18 18 17 16 15 15 14 13 13 12 12 11 10 10 9
8 9 11 13 13 12 10 10 10 11 12 13 13 14 14 13 13 13 13 14 15 15 16 16 16 16 16 15 15 15 14 14 14 13 13 13 13 13 14 14 14 14 13 13 13 14 14 15 15 15 16 16 17 17 18 18 17 16 15 13 12 12 11 11 10 9 9 8 7
9 11 13 14 13 12 11 11 11 12 13 14 14 14 14 14 14 14 15 15 16 16 17 17 17 17 17 16 16 16 15 15 15 15 15 14 14 14 14 14 14 14 13 13 14 14 15 15 15 15 15 15 16 16 17 17 17 15 14 13 12 11 10 10 9 9 8 7 7
11 13 14 14 13 12 11 11 12 13 14 14 15 15 15 15 15 15 16 16 17 17 18 18 18 18 18 18 17 17 16 16 15 15 15 15 15 15 15 15 14 14 13 14 14 14 14 14 14 14 14 15 15 16 16 16 15 14 13 12 11 10 10 9 9 8 8 7 7
12 14 15 14 13 12 12 12 12 13 14 15 15 15 15 15 15 16 16 17 17 17 18 18 18 18 18 18 17 17 17 16 16 16 16 16 16 16 15 15 14 14 14 14 14 14 14 14 14 14 14 14 15 15 15 14 14 13 13 12 11 10 9 9 8 8 8 7 7
14 15 15 14 14 13 13 13 13 14 14 15 15 15 15 15 15 16 16 17 17 17 18 18 19 19 18 17 17 17 16 16 16 16 16 16 16 16 16 15 15 14 14 14 14 14 14 14 14 14 14 14 14 14 13 13 13 12 12 11 10 9 9 8 8 8 8 7 7
15 16 15 15 14 14 14 14 14 15 15 15 15 15 15 15 15 16 16 17 17 17 18 18 18 18 17 17 17 17 16 16 16 16 16 16 16 16 16 15 15 14 14 14 14 14 14 14 14 14 13 13 13 12 12 12 12 11 11 10 10 9 9 8 8 8 7 7 7
16 16 16 15 15 15 15 15 16 16 16 16 15 15 15 16 16 16 16 17 17 17 18 18 18 17 17 17 16 16 16 16 16 16 16 16 16 16 15 15 15 14 13 13 13 13 13 13 13 13 13 12 12 11 11 11 10 10 10 10 10 9 9 9 8 8 8 7 7
17 17 17 16 16 16 16 16 16 16 16 16 15 16 16 16 16 16 16 16 17 17 17 17 17 17 16 16 16 16 16 17 17 17 17 17 17 17 16 16 15 14 13 13 13 13 13 12 12 12 12 12 11 11 10 10 10 10 10 10 10 10 10 9 9 8 8 8 7
17 17 17 17 16 16 16 16 16 16 16 16 16 16 16 17 16 16 15 16 16 17 17 17 16 16 16 16 16 16 17 17 17 17 17 17 17 18 18 17 16 14 13 13 13 13 12 12 12 12 12 11 11 11 11 11 11 11 11 12 12 11 11 10 10 9 9 8 8
18 17 17 17 16 16 16 17 17 16 16 16 16 17 17 17 16 15 14 15 16 16 16 16 16 16 16 16 16 16 16 16 16 17 17 17 17 18 18 17 16 14 13 12 12 12 12 12 12 12 11 11 11 12 12 12 12 13 13 13 12 12 11 10 10 9 9 9 9
18 17 17 16 17 17 17 17 17 17 17 17 17 17 17 16 15 14 14 14 15 15 16 16 16 15 15 15 15 16 16 16 16 17 17 17 17 17 17 17 16 15 13 12 12 12 12 12 12 12 11 11 11 12 12 13 13 13 13 12 12 11 11 10 9 9 9 9 10
17 17 16 16 17 17 17 17 17 17 17 17 17 18 17 15 14 13 13 13 14 14 15 15 15 14 14 14 15 16 16 17 17 17 18 18 17 17 16 16 16 15 14 12 12 12 12 12 12 12 11 11 11 11 12 12 13 13 12 11 11 10 9 9 8 8 8 8 9
17 16 16 16 17 17 18 18 18 18 18 18 18 17 16 14 13 12 12 12 13 14 14 15 15 15 15 15 16 16 17 17 18 18 18 18 17 16 15 15 15 15 14 13 11 11 12 12 12 11 11 11 10 10 10 10 11 11 11 10 9 9 8 7 7 7 6 6 7
Wind_Direction
242 252 260 264 266 267 268 267 267 266 264 262 259 257 255 252 250 249 250 251 250 251 253 254 256 258 261 263 265 267 268 267 265 261 257 253 250 247 245 242 239 237 237 238 239 239 237 233 230 228 227 228 231 237 243 246 246 243 238 236 237 240 243 246 249 251 251 249 247
235 248 257 262 264 266 267 268 268 267 265 261 256 251 248 244 240 240 243 245 246 247 249 251 254 257 260 263 265 266 266 265 261 256 251 247 245 243 241 238 236 235 235 235 235 233 231 228 225 224 226 230 235 241 246 247 244 240 237 239 242 244 245 245 246 246 245 243 243
212 228 239 246 250 255 257 258 259 258 255 253 249 245 240 237 236 236 239 242 244 246 247 249 252 255 257 259 260 260 258 255 251 248 246 243 240 238 236 234 233 232 231 230 229 227 225 223 222 224 229 236 244 249 252 253 252 251 249 248 248 248 246 244 243 241 239 238 242
194 205 213 222 229 236 240 241 242 241 240 240 238 235 233 234 235 236 239 242 244 244 244 245 247 248 249 250 251 250 247 244 243 241 240 238 235 232 230 229 229 229 228 227 225 223 222 222 224 229 236 244 248 250 251 252 253 252 250 247 247 245 243 239 237 234 233 236 240
183 187 190 193 201 208 215 220 223 225 227 230 228 228 228 230 231 234 238 240 240 239 237 237 237 238 238 239 239 238 237 236 236 235 234 231 229 227 225 225 225 226 226 226 224 224 225 228 232 237 242 246 247 245 243 242 243 243 243 242 240 237 234 230 227 226 228 232 231
179 180 179 179 185 192 198 204 209 214 218 222 219 218 221 225 227 226 225 224 225 224 223 224 225 225 225 225 227 227 227 227 228 229 228 225 224 222 222 221 222 224 225 226 227 229 232 237 240 241 242 243 241 238 235 234 234 234 234 231 228 224 220 216 216 217 219 219 215
179 180 179 180 183 188 193 197 202 207 212 214 212 212 215 219 218 214 212 211 206 202 201 203 202 200 199 199 201 203 202 201 205 211 214 213 213 213 214 214 217 219 223 226 230 235 240 243 242 239 237 234 229 225 223 224 226 227 222 214 210 206 202 201 203 205 206 206 205
181 182 182 182 185 188 191 193 197 202 207 210 208 210 212 212 208 205 200 190 177 169 164 158 152 149 149 149 142 134 131 133 137 144 151 157 162 167 172 178 184 190 197 206 216 226 232 234 231 226 221 217 208 203 203 209 214 214 208 199 194 192 191 192 194 196 198 202 206
186 186 187 186 186 187 188 190 192 197 201 203 202 202 200 194 184 174 163 150 141 137 133 128 128 128 129 127 123 120 118 119 119 120 122 124 124 124 124 125 125 128 135 143 157 174 191 200 202 202 201 199 193 188 188 192 197 200 198 193 189 190 192 194 196 199 204 212 217
191 190 189 186 183 181 181 182 184 187 188 184 177 171 163 153 146 138 131 127 127 126 126 125 126 127 126 125 123 121 119 118 119 120 120 120 118 115 113 110 109 111 117 127 138 153 168 177 177 177 180 188 192 190 188 189 193 194 194 194 194 194 197 202 206 212 217 221 221
188 187 184 179 173 172 173 172 168 166 162 154 148 142 136 133 130 127 126 128 129 128 128 129 130 129 128 126 124 123 123 123 125 126 127 126 125 124 122 120 117 116 122 140 159 176 185 186 180 175 177 187 194 194 193 194 197 197 195 195 199 202 205 214 222 221 213 208 207
178 176 173 168 162 161 163 160 155 150 146 141 138 135 132 131 131 132 135 138 139 137 136 137 139 140 141 140 138 137 137 138 141 143 146 149 155 165 178 193 203 202 193 192 201 206 206 200 193 187 187 191 195 194 194 197 201 201 198 197 204 210 216 222 222 208 192 187 188
170 169 165 160 155 154 156 155 151 147 144 142 140 139 137 137 139 141 146 152 156 154 151 152 158 163 165 164 167 169 173 176 182 188 194 201 213 226 237 245 250 252 244 229 222 217 212 207 202 197 192 190 191 193 197 201 204 205 203 201 206 213 219 218 203 186 175 173 172
165 163 160 156 153 155 157 156 153 151 149 146 146 145 144 143 146 151 158 165 172 172 169 168 175 181 184 184 190 197 204 211 216 221 225 230 235 239 242 245 246 245 240 232 224 217 211 207 204 202 198 193 192 196 202 207 210 211 211 207 203 203 203 196 181 169 163 161 159
162 159 158 157 157 160 161 160 157 154 153 151 153 153 152 152 155 162 169 176 181 184 184 182 187 194 202 207 211 216 221 225 227 230 234 238 239 238 236 235 232 229 226 224 218 211 205 203 203 206 205 202 199 201 206 212 215 215 212 205 195 186 178 169 160 156 154 153 150
158 158 158 159 162 165 166 164 161 157 156 157 161 164 163 164 168 174 179 179 178 181 188 193 204 213 220 226 229 233 241 246 248 248 247 245 240 234 225 216 209 209 214 216 210 201 194 193 198 202 204 204 204 205 208 211 212 207 198 185 174 164 156 151 148 146 146 147 144
156 154 155 159 163 167 169 167 164 161 161 167 174 177 176 176 180 186 192 194 191 185 187 202 222 225 225 237 251 263 271 274 277 278 271 248 224 206 193 185 187 196 202 204 197 187 181 182 187 194 201 204 204 203 202 200 193 182 170 160 153 147 143 142 141 140 140 141 138
154 152 152 154 157 162 168 170 167 165 168 177 187 184 177 182 193 202 211 224 224 214 203 212 219 213 213 249 275 280 275 271 278 294 74 134 154 168 174 176 180 183 184 184 179 176 175 178 183 191 197 198 195 190 185 178 167 158 151 147 143 139 138 137 137 138 138 136 132
154 150 147 145 146 153 162 166 165 167 173 182 182 166 160 184 200 202 200 198 199 197 195 195 188 188 204 252 277 268 232 207 199 179 156 155 166 176 182 179 175 175 176 177 176 176 177 180 182 184 185 182 175 170 164 157 150 145 142 139 137 136 135 134 136 136 135 130 124
155 149 142 136 135 141 151 157 160 163 166 162 171 175 177 181 187 188 181 174 175 179 185 187 185 191 209 240 249 218 191 182 182 182 179 177 180 182 181 176 173 174 177 178 178 177 178 179 178 174 170 166 159 154 150 146 142 140 138 136 135 134 134 134 134 132 129 124 119
160 154 146 139 128 127 152 163 164 160 156 173 189 182 177 179 182 182 180 177 176 176 179 182 187 198 216 226 214 196 186 179 179 182 184 183 181 178 175 173 171 172 172 171 171 172 172 170 166 160 156 153 149 145 143 141 139 138 137 135 135 133 133 132 131 129 126 122 120
173 173 185 238 281 284 276 253 217 196 201 206 185 176 177 181 183 180 177 175 174 175 178 184 195 207 210 203 194 189 183 178 176 177 178 177 173 170 169 170 167 164 163 163 165 166 165 161 156 151 148 146 144 143 142 140 139 138 137 136 135 134 133 132 130 128 125 123 121
192 204 239 270 269 262 251 226 193 183 189 194 182 177 178 181 180 177 174 174 177 181 187 193 201 202 196 187 182 180 176 172 171 170 170 168 164 161 160 161 157 154 153 156 159 162 161 157 152 149 146 145 143 143 142 142 141 139 137 136 135 135 134 134 133 131 129 126 123
204 218 244 253 235 215 197 179 171 170 175 181 179 179 179 178 176 175 175 178 183 190 195 196 192 186 178 172 170 169 168 165 163 163 162 160 156 153 151 150 149 147 147 149 154 158 157 155 151 149 147 146 145 144 144 143 141 139 137 136 135 135 135 136 136 134 132 130 127
204 220 230 219 199 185 174 168 167 168 172 175 178 179 178 175 175 176 179 185 190 194 194 188 180 172 167 163 161 159 158 156 154 153 151 148 145 144 143 141 139 137 136 138 145 149 152 151 150 149 148 147 146 145 143 142 140 138 137 136 136 136 136 136 137 137 135 133 131
203 211 211 198 185 176 170 168 168 169 173 175 178 179 177 174 175 178 184 186 186 185 182 176 168 162 157 155 152 149 145 141 139 137 135 132 130 129 128 125 122 121 123 129 136 141 144 146 149 149 149 148 146 144 141 139 138 137 136 135 136 136 136 136 136 136 135 133 130
200 203 198 189 180 175 171 170 170 173 176 178 179 178 175 173 173 176 179 178 173 170 166 162 157 152 148 145 141 135 130 125 122 121 120 120 119 118 116 114 113 115 119 125 131 136 139 142 146 148 148 147 146 144 141 138 137 135 132 131 131 131 131 131 131 131 130 128 127
196 197 191 183 178 175 174 173 175 178 178 178 178 176 173 170 169 170 170 166 160 156 153 150 147 143 138 134 131 127 124 121 119 119 119 118 117 117 115 114 115 117 122 127 130 133 136 138 141 143 145 145 145 144 141 138 134 130 127 125 125 125 126 126 127 126 126 127 131
194 192 187 181 178 177 177 178 178 177 176 175 174 171 167 164 163 163 160 156 152 149 147 144 141 138 135 132 130 128 127 126 125 126 125 124 122 120 119 118 119 121 126 129 130 131 133 134 136 138 139 140 140 139 136 133 129 127 125 125 125 126 126 126 126 127 128 131 137
194 190 185 180 179 179 179 178 176 174 172 171 169 165 162 159 158 157 154 151 148 147 146 144 141 139 137 135 133 132 130 129 129 129 128 126 124 123 122 123 123 126 128 130 130 130 130 132 133 133 133 133 132 131 129 128 127 128 129 130 130 130 130 129 130 129 131 133 135
193 189 184 180 178 177 177 175 173 171 169 167 163 160 157 155 154 153 152 150 149 148 147 146 144 141 140 139 137 134 133 132 131 130 129 127 125 125 126 126 127 128 130 130 130 129 130 131 131 130 129 127 126 126 127 129 131 133 135 136 136 135 134 134 133 132 133 133 132
190 186 182 179 176 174 172 171 170 169 167 164 161 158 156 155 154 154 153 152 151 149 148 147 145 143 141 140 139 137 135 134 133 132 131 129 128 128 128 128 128 129 130 131 130 130 131 132 131 130 128 127 127 128 131 134 137 140 141 141 140 139 139 138 137 135 134 132 130
188 184 180 176 173 171 170 170 169 168 165 163 161 160 158 157 155 154 153 153 151 149 147 146 145 143 142 140 139 138 136 134 134 133 132 130 129 129 128 128 129 130 130 132 131 131 132 131 131 130 129 129 130 132 135 139 141 142 142 142 141 140 140 140 139 138 136 133 130
186 182 177 174 171 169 170 171 171 169 166 164 163 163 161 158 154 152 151 152 151 150 148 148 146 145 144 143 142 139 137 136 135 134 133 132 130 129 128 126 129 131 131 132 131 130 130 130 130 129 129 131 133 135 138 140 141 141 141 140 140 140 140 140 140 139 137 135 132
184 179 175 172 170 170 171 174 174 171 167 164 163 164 163 160 156 153 152 152 152 150 149 149 148 148 147 146 144 141 139 138 137 137 137 135 133 130 127 126 129 130 130 130 129 129 129 128 128 129 130 132 134 136 138 139 139 139 139 139 139 140 139 138 138 136 136 134 133
183 178 174 171 171 172 174 175 174 171 168 165 164 163 162 161 158 157 157 156 154 151 150 150 150 150 149 148 147 145 143 144 143 143 143 142 138 133 130 129 129 130 131 130 129 129 128 127 127 129 130 132 134 135 136 136 136 136 137 137 136 136 136 133 132 132 131 131 130
184 179 175 173 173 174 176 176 174 172 169 167 166 165 163 161 160 161 163 162 158 154 153 154 154 154 154 154 152 151 150 149 149 148 148 146 142 137 133 132 132 133 134 133 131 129 127 125 126 127 129 131 133 134 135 135 135 135 136 135 133 132 131 128 126 125 125 124 123
184 181 178 176 176 177 178 177 176 173 172 170 169 168 165 163 162 163 167 169 165 161 159 160 161 161 161 161 158 155 153 153 153 152 149 146 142 139 137 135 135 135 135 133 130 128 125 123 124 125 126 128 130 132 133 134 135 135 135 134 132 130 128 125 123 121 120 119 117
185 183 181 180 179 179 179 178 177 177 176 174 172 170 167 165 165 167 173 177 176 172 169 167 166 167 166 164 160 156 154 155 155 153 150 146 144 142 141 138 137 135 134 132 129 126 124 123 123 124 124 126 128 130 132 134 135 135 135 134 133 130 128 126 124 122 120 120 119
186 185 185 185 184 183 181 180 180 181 180 178 174 172 170 168 169 172 178 183 183 181 177 173 171 170 168 164 159 157 156 156 156 154 151 148 147 146 144 141 138 136 135 133 130 126 124 124 124 125 126 126 128 130 132 134 135 135 135 135 134 132 131 130 129 128 128 129 129
188 188 189 188 187 186 184 183 183 184 183 181 177 174 172 173 174 177 181 185 185 183 180 177 174 170 165 161 159 158 158 157 156 154 153 151 150 148 145 141 138 136 136 137 135 131 126 125 125 125 125 126 128 130 132 133 133 134 134 135 134 135 135 137 138 141 143 145 144
Height
812 813 813 813 813 814 814 814 814 814 815 815 815 815 815 816 816 816 816 816 816 816 816 816 817 817 817 816 816 816 816 816 816 816 816 816 816 817 817 817 818 819 819 820 821 821 821 822 822 823 823 823 824 824 825 826 826 827 827 827 827 827 827 828 829 829 830 830 831
812 812 812 813 813 813 813 814 814 814 814 814 814 814 815 815 815 815 815 815 816 816 816 816 816 816 816 816 816 815 815 815 815 815 815 815 816 816 816 817 817 818 819 819 820 820 821 821 821 822 822 823 823 824 824 825 826 826 826 826 826 826 826 827 827 828 828 829 830
812 812 812 812 813 813 813 813 813 814 814 814 814 814 814 814 814 815 815 815 815 815 815 815 815 815 815 815 815 815 815 814 814 814 814 815 815 815 816 816 817 817 818 818 819 819 820 820 821 821 821 821 822 823 823 824 825 825 826 826 826 826 826 826 826 827 828 828 829
811 812 812 812 813 813 813 813 813 813 813 814 814 814 814 814 814 814 814 814 815 815 815 815 815 814 814 814 814 814 814 814 814 814 814 814 814 815 815 816 816 817 817 818 818 818 819 819 819 820 820 821 821 821 822 823 824 824 824 825 825 825 825 825 826 826 827 827 827
811 811 812 812 812 813 813 813 813 813 813 813 814 814 814 814 814 814 814 814 814 814 814 814 814 814 814 814 814 814 813 813 813 813 813 814 814 814 815 815 816 816 816 817 817 818 818 818 819 819 819 819 820 820 821 821 822 822 823 823 823 824 824 824 825 825 826 826 826
811 811 812 812 812 812 813 813 813 813 813 813 813 813 813 813 814 814 814 814 814 814 814 814 814 814 814 814 813 813 813 813 813 813 813 813 814 814 814 815 815 815 816 816 816 817 817 817 818 818 818 819 819 820 820 820 821 821 821 822 822 823 823 824 824 825 825 825 826
811 811 811 812 812 812 812 812 813 813 813 813 813 813 813 813 813 813 813 813 813 814 814 814 814 814 814 814 814 813 813 813 813 813 813 813 814 814 814 814 815 815 816 816 816 816 817 817 817 818 818 818 819 819 819 820 820 821 821 821 822 822 823 823 824 824 825 825 826
811 811 811 811 812 812 812 812 812 812 813 813 813 813 813 813 813 813 813 813 813 813 813 814 814 814 814 814 814 814 814 814 814 814 814 814 814 814 815 815 815 815 816 816 816 816 817 817 817 817 818 818 818 819 819 819 820 821 821 821 822 822 823 823 824 824 825 825 825
811 811 811 811 811 812 812 812 812 812 812 812 812 812 812 813 813 813 813 813 813 813 814 814 814 814 814 814 814 814 814 814 814 814 814 815 815 815 815 815 815 816 816 816 816 817 817 817 817 817 818 818 818 818 819 819 820 821 821 821 822 822 823 823 823 824 824 825 825
810 811 811 811 811 811 812 812 812 812 812 812 812 812 812 813 813 813 813 813 814 814 814 814 814 815 815 815 815 815 815 815 815 815 815 815 815 815 816 816 816 816 816 816 817 817 817 817 817 817 817 818 818 819 819 819 820 820 821 821 821 822 822 823 823 824 824 824 824
810 810 811 811 811 811 811 812 812 812 812 812 812 812 812 813 813 813 813 814 814 814 814 815 815 815 815 815 815 815 815 815 815 815 815 815 815 816 816 816 816 816 816 817 817 817 818 818 818 817 817 818 818 819 819 819 820 820 820 821 821 821 822 822 823 823 823 823 824
810 810 811 811 811 811 811 811 811 812 812 812 812 812 813 813 813 813 814 814 814 814 814 815 815 815 815 815 815 815 815 815 815 815 815 815 815 816 816 816 816 816 816 816 817 817 817 817 817 817 817 817 818 818 819 819 819 820 820 820 821 821 821 822 822 822 823 823 823
810 810 810 811 811 811 811 811 811 812 812 812 812 812 813 813 813 814 814 814 814 814 815 815 815 815 815 815 815 815 815 815 815 815 815 815 815 815 815 816 816 816 816 816 816 817 817 817 817 816 816 817 817 818 818 819 819 819 820 820 821 821 821 821 822 822 822 822 823
809 810 810 810 811 811 811 811 811 811 812 812 812 812 813 813 813 814 814 814 814 814 814 815 815 815 815 815 815 815 815 815 815 815 815 815 815 815 815 815 815 815 815 816 816 816 816 816 816 816 816 816 817 817 818 818 819 819 820 820 820 821 821 821 821 821 822 822 823
809 809 810 810 810 811 811 811 811 811 811 812 812 812 813 813 813 813 814 814 814 814 814 814 814 814 814 815 815 815 815 815 815 815 814 814 814 814 814 814 814 814 815 815 815 815 816 816 816 816 816 816 817 817 817 818 818 819 819 820 820 820 820 821 821 821 822 822 823
809 809 810 810 810 810 811 811 811 811 811 811 812 812 812 813 813 813 813 813 813 814 814 814 814 814 814 814 814 814 814 814 814 814 814 814 813 813 813 813 814 814 814 814 814 815 815 815 815 816 816 816 816 817 817 818 818 818 819 819 820 820 820 821 821 822 822 823 823
809 809 809 810 810 810 810 811 811 811 811 811 811 812 812 812 812 813 813 813 813 813 813 813 813 813 813 813 813 813 813 813 813 813 813 813 813 813 813 813 813 813 814 814 814 814 815 815 815 815 816 816 816 816 817 817 818 818 819 819 820 820 821 821 821 822 823 823 824
809 809 809 810 810 810 810 810 810 811 811 811 811 811 812 812 812 812 812 812 813 813 813 813 813 813 813 813 813 813 813 813 813 813 813 813 813 813 813 813 813 813 813 814 814 814 814 814 815 815 815 816 816 816 817 817 818 818 819 819 820 821 821 821 822 822 823 824 824
809 809 809 809 810 810 810 810 810 810 811 811 811 811 811 811 812 812 812 812 812 813 813 813 813 813 813 813 812 813 813 813 813 813 813 813 813 813 813 813 813 813 813 813 814 814 814 814 814 815 815 816 816 816 817 817 818 819 819 820 821 821 821 822 822 823 824 824 825
808 809 809 809 809 810 810 810 810 810 810 811 811 811 811 811 811 812 812 812 812 812 812 813 812 812 812 812 812 812 812 813 813 813 813 813 813 813 813 813 813 813 813 813 813 814 814 814 814 815 815 816 816 816 817 818 819 819 820 821 821 821 822 822 823 824 824 825 825
808 808 809 809 809 809 809 810 810 810 810 810 811 811 811 811 811 811 812 812 812 812 812 812 812 812 812 812 812 812 812 813 813 813 813 813 813 813 813 813 813 813 813 813 813 814 814 814 815 815 815 816 816 817 818 818 819 820 820 821 821 822 823 823 824 824 825 825 826
808 808 808 808 809 809 809 809 809 810 810 810 810 810 811 811 811 811 812 812 812 812 812 812 812 812 812 812 812 812 812 812 812 813 813 813 813 813 813 813 813 813 813 813 813 814 814 814 815 815 816 816 817 818 818 819 820 820 821 821 822 822 823 824 824 825 825 826 826
807 808 808 808 808 808 808 809 809 809 809 810 810 810 810 811 811 811 811 811 812 812 812 812 812 812 812 812 812 812 812 812 812 812 812 812 813 813 813 813 813 813 813 813 814 814 814 815 815 816 816 817 818 818 819 820 820 821 821 822 822 823 824 824 825 825 826 826 826
807 807 807 807 808 808 808 808 808 809 809 809 809 809 810 810 811 811 811 811 811 811 811 812 812 812 812 812 812 812 812 812 812 812 813 813 813 813 813 813 813 813 814 814 814 814 815 815 816 816 817 818 818 819 820 820 821 821 822 822 823 824 824 825 825 826 826 826 827
806 806 807 807 807 807 807 808 808 808 808 809 809 809 809 810 810 811 811 811 811 811 811 811 811 812 812 812 812 812 812 812 812 812 813 813 813 813 813 813 814 814 814 814 815 815 816 816 816 817 818 818 819 820 820 821 821 822 822 823 823 824 825 825 826 826 827 827 827
806 806 806 806 807 807 807 807 807 808 808 808 808 809 809 809 810 810 811 811 811 811 811 811 811 811 812 812 812 812 812 813 813 813 813 813 813 814 814 814 814 815 815 815 816 816 816 817 817 818 818 819 820 820 821 822 822 823 823 824 824 825 825 826 826 827 827 828 828
805 806 806 806 806 806 807 807 807 807 808 808 808 808 809 809 809 810 810 810 810 811 811 811 811 812 812 812 812 812 813 813 813 813 814 814 814 814 815 815 815 816 816 816 817 817 817 818 818 819 819 820 820 821 821 822 823 824 824 825 825 826 826 826 827 827 828 828 829
805 805 806 806 806 806 806 807 807 807 807 808 808 808 808 809 809 810 810 810 810 811 811 811 811 812 812 812 813 813 813 813 814 814 814 815 815 815 815 816 816 816 817 818 818 818 818 819 819 820 820 821 821 822 822 823 823 824 825 825 826 826 826 827 827 828 828 829 829
804 805 805 806 806 806 806 807 807 807 807 807 808 808 808 809 809 809 810 810 810 811 811 811 811 812 812 813 813 813 813 814 814 815 815 815 816 816 816 816 817 818 818 819 819 819 819 820 820 821 821 822 822 822 823 823 824 825 825 826 826 827 827 827 828 828 829 829 830
804 804 805 805 806 806 806 806 807 807 807 807 808 808 808 809 809 809 810 810 811 811 811 811 812 812 812 813 813 813 814 814 815 815 816 816 816 817 817 817 818 819 819 820 820 820 820 821 821 822 822 822 823 823 823 824 825 825 826 826 827 827 827 828 828 829 829 830 830
803 804 804 805 805 806 806 806 807 807 807 807 808 808 808 809 809 810 810 810 811 811 811 811 812 812 812 813 813 814 814 815 815 816 816 816 817 817 818 818 819 819 820 820 821 821 821 821 822 822 823 823 824 824 824 825 825 826 826 827 827 828 828 828 829 829 830 830 830
803 803 804 805 805 806 806 806 807 807 807 807 808 808 808 809 809 810 810 810 811 811 811 811 812 812 813 813 813 814 814 815 816 816 816 817 817 818 818 819 820 820 821 821 821 821 822 822 822 823 823 824 824 825 825 826 826 826 827 827 828 828 828 829 829 830 830 830 830
802 803 803 804 805 805 806 806 807 807 807 807 808 808 809 809 809 810 810 811 811 811 811 812 812 812 813 813 814 814 815 816 816 816 817 817 818 818 819 820 820 821 821 821 822 822 822 823 823 823 824 824 825 825 826 826 826 827 827 828 828 828 829 829 829 830 830 830 830
802 802 803 804 804 805 806 806 806 807 807 807 808 808 809 809 810 810 810 811 811 811 811 812 812 813 813 814 814 815 815 816 816 817 817 818 819 819 820 820 821 821 822 822 822 822 823 823 824 824 824 825 825 826 826 826 827 827 828 828 828 829 829 829 830 830 830 830 830
801 802 803 803 804 805 805 806 806 806 807 807 808 808 809 809 810 810 810 811 811 811 812 812 812 813 813 814 815 815 816 816 817 817 818 818 819 819 820 821 821 822 822 822 823 823 823 824 824 824 825 825 826 826 826 827 827 827 828 828 829 829 829 830 830 830 830 830 830
801 801 802 803 804 804 805 806 806 806 807 807 808 808 809 809 810 810 810 811 811 811 812 812 813 813 814 814 815 816 816 816 817 818 818 819 819 820 820 821 822 823 823 823 823 824 824 824 824 825 825 826 826 826 827 827 827 828 828 829 829 829 830 830 830 830 830 830 830
800 801 801 802 803 804 804 805 806 806 806 807 808 808 809 809 810 810 810 811 811 811 812 812 813 813 814 814 815 816 816 817 817 818 819 819 820 820 821 821 822 823 824 824 824 824 824 825 825 825 825 826 826 826 827 827 828 828 828 829 829 829 830 830 830 830 830 830 830
800 800 801 802 802 803 804 805 805 806 806 807 807 808 808 809 809 810 811 811 811 811 812 812 813 813 814 815 815 816 817 817 818 819 819 820 821 821 821 822 823 823 824 824 824 824 825 825 825 826 826 826 826 827 827 827 828 828 829 829 829 830 830 830 830 830 830 830 830
799 800 801 801 802 803 803 804 805 805 806 806 807 807 808 809 809 810 810 811 811 811 812 812 813 814 815 815 816 816 817 818 819 820 820 821 821 822 822 822 823 823 824 825 825 825 825 825 826 826 826 826 827 827 827 828 828 828 829 829 829 830 830 830 830 830 830 830 831
799 799 800 801 801 802 803 804 804 805 805 806 806 807 808 808 809 810 810 811 811 812 812 813 813 814 815 816 816 817 818 818 819 820 821 821 822 822 823 823 823 824 824 825 825 826 826 826 826 826 827 827 827 828 828 828 828 829 829 829 829 830 830 830 830 830 830 831 831
798 799 800 800 801 801 802 803 804 804 805 806 806 807 807 808 809 809 810 811 811 812 812 813 814 814 815 816 817 817 818 819 820 820 821 821 822 822 823 823 823 824 825 825 826 826 826 826 827 827 827 827 828 828 828 828 829 829 829 829 829 830 830 830 830 830 831 831 831